Location: Demmingen
(48.6757°N, 10.4375°E)
Time: 21:04:39
(UTC+00:00)

Meteor 2-5 Rocket - Pass Details

Date: 23 May 2024
Orbit: 832 x 911 km, 81.2° (Epoch: 14 June)

Event Time Altitude Azimuth Distance (km) Brightness Sun altitude
Exits shadow 02:43:02 - 213° (SSW) 2,852 5.8 -6.6°
Reaches altitude 10° 02:43:47 10° 215° (SW) 2,579 5.6 -6.5°
Maximum altitude 02:49:27 46° 289° (WNW) 1,201 4.3 -5.8°
Drops below altitude 10° 02:55:11 10° 2° (N) 2,611 6.9 -5.1°
Sets 02:57:47 0° 9° (N) 3,555 7.8 -4.8°
